Date String (YYYY-MM-DD hh:mm:ss) UTC,Instrument flags,Ambient pressure (hPa),Sample flow (lpm),Bypass flow (lpm),Sample temperature (°C),Ambient temperature (°C),ASC tube jacket temperature (°C),LED temperature (°C),Box temperature (°C),Sample RH (%),Span deviation,Mass concentration (μg/m³),Mass concentration (μg/m³),Mass concentration (μg/m³)
DateTimeUTC,F1_M11,P_M11,Q1_M11,Q2_M11,T1_M11,T2_M11,T3_M11,T4_M11,T5_M11,U1_M11,ZSPAN_M11,X0_M11,X2_M11,X1_M11
2023-01-19 06:00:00,,0818.6,4.99,0.00,22.4,21.3,00.0,31.1,24.2,12.3,0000.0,0010.23,0006.38,0005.94
2023-01-19 06:01:00,,0818.5,5.02,0.00,22.4,21.2,00.0,31.1,24.2,12.4,0000.0,0010.20,0006.35,0005.90
2023-01-19 06:02:00,,0818.5,5.00,0.00,22.4,21.0,00.0,31.1,24.1,12.5,0000.0,0010.25,0006.36,0005.89
2023-01-19 06:03:00,,0818.5,4.99,0.00,22.4,20.9,00.0,31.1,24.1,12.6,0000.0,0010.31,0006.36,0005.89
2023-01-19 06:04:00,,0818.5,5.01,0.00,22.4,20.8,00.0,31.1,24.1,12.6,0000.0,0011.14,0006.39,0005.91
2023-01-19 06:05:00,,0818.5,5.00,0.00,22.3,20.8,00.0,31.1,24.1,12.6,0000.0,0011.52,0006.38,0005.90
2023-01-19 06:06:00,,0818.5,4.99,0.00,22.3,20.7,00.0,31.1,24.0,12.6,0000.0,0011.40,0006.32,0005.87
2023-01-19 06:07:00,,0818.5,4.99,0.00,22.3,20.7,00.0,31.1,24.0,12.6,0000.0,0011.37,0006.31,0005.87
2023-01-19 06:08:00,,0818.6,5.02,0.00,22.3,20.7,00.0,31.1,24.0,12.6,0000.0,0010.57,0006.31,0005.87
2023-01-19 06:09:00,,0818.7,5.00,0.00,22.3,20.6,00.0,31.1,23.9,12.6,0000.0,0010.48,0006.27,0005.80
2023-01-19 06:10:00,,0818.7,5.00,0.00,22.2,20.6,00.0,31.1,23.9,12.7,0000.0,0010.42,0006.22,0005.75
2023-01-19 06:11:00,,0818.7,5.00,0.00,22.2,21.1,00.0,31.0,24.0,12.7,0000.0,0010.38,0006.18,0005.72
2023-01-19 06:12:00,,0818.7,5.00,0.00,22.3,22.1,00.0,31.0,24.2,12.6,0000.0,0010.33,0006.16,0005.72
2023-01-19 06:13:00,,0818.7,5.01,0.00,22.4,22.8,00.0,31.1,24.5,12.6,0000.0,0010.26,0006.13,0005.72
2023-01-19 06:14:00,,0818.7,5.02,0.00,22.5,22.7,00.0,31.1,24.5,12.6,0000.0,0010.26,0006.12,0005.71
2023-01-19 06:15:00,,0818.7,5.00,0.00,22.5,22.2,00.0,31.1,24.4,12.6,0000.0,0009.78,0006.13,0005.73
2023-01-19 06:16:00,,0818.7,5.01,0.00,22.5,21.9,00.0,31.2,24.4,12.6,0000.0,0008.98,0006.13,0005.75
2023-01-19 06:17:00,,0818.7,5.00,0.00,22.5,21.6,00.0,31.2,24.3,12.6,0000.0,0009.09,0006.16,0005.77
2023-01-19 06:18:00,,0818.7,5.00,0.00,22.5,21.3,00.0,31.2,24.3,12.6,0000.0,0009.26,0006.17,0005.78
2023-01-19 06:19:00,,0818.7,4.99,0.00,22.5,21.2,00.0,31.2,24.2,12.6,0000.0,0009.86,0006.18,0005.80
2023-01-19 06:20:00,,0818.6,5.00,0.00,22.5,21.0,00.0,31.2,24.2,12.6,0000.0,0009.87,0006.18,0005.84
2023-01-19 06:21:00,,0818.7,5.00,0.00,22.4,20.9,00.0,31.2,24.2,12.7,0000.0,0009.95,0006.23,0005.88
2023-01-19 06:22:00,,0818.6,5.01,0.00,22.4,20.9,00.0,31.2,24.1,12.7,0000.0,0010.08,0006.30,0005.93
2023-01-19 06:23:00,,0818.7,5.01,0.00,22.4,20.8,00.0,31.2,24.1,12.6,0000.0,0010.20,0006.36,0005.98
2023-01-19 06:24:00,,0818.6,5.01,0.00,22.4,20.8,00.0,31.2,24.1,12.6,0000.0,0010.30,0006.39,0006.00
2023-01-19 06:25:00,,0818.6,5.00,0.00,22.4,20.7,00.0,31.2,24.0,12.5,0000.0,0010.45,0006.38,0006.00
2023-01-19 06:26:00,,0818.6,5.00,0.00,22.3,20.7,00.0,31.1,24.0,12.4,0000.0,0010.42,0006.33,0005.96
2023-01-19 06:27:00,,0818.5,4.98,0.00,22.3,20.7,00.0,31.1,24.0,11.9,0000.0,0010.28,0006.17,0005.80
2023-01-19 06:28:00,,0818.5,5.00,0.00,22.3,20.6,00.0,31.1,24.0,11.2,0000.0,0009.97,0005.90,0005.54
2023-01-19 06:29:00,,0818.5,5.01,0.00,22.3,20.9,00.0,31.1,24.0,10.8,0000.0,0009.55,0005.61,0005.25
2023-01-19 06:30:00,,0818.6,5.01,0.00,22.3,21.9,00.0,31.1,24.2,10.7,0000.0,0008.87,0005.30,0004.93
2023-01-19 06:31:00,,0818.6,5.00,0.00,22.5,22.8,00.0,31.1,24.5,10.5,0000.0,0008.82,0004.98,0004.61
2023-01-19 06:32:00,,0818.6,5.00,0.00,22.5,22.7,00.0,31.1,24.5,10.5,0000.0,0008.41,0004.64,0004.31
2023-01-19 06:33:00,,0818.5,4.99,0.00,22.6,22.2,00.0,31.2,24.4,10.6,0000.0,0008.00,0004.31,0004.02
2023-01-19 06:34:00,,0818.5,5.01,0.00,22.5,21.8,00.0,31.2,24.3,10.5,0000.0,0007.74,0004.04,0003.76
2023-01-19 06:35:00,,0818.5,4.99,0.00,22.5,21.5,00.0,31.2,24.3,10.3,0000.0,0007.51,0003.69,0003.44
2023-01-19 06:36:00,,0818.5,5.00,0.00,22.5,21.2,00.0,31.2,24.2,10.3,0000.0,0006.70,0003.37,0003.11
2023-01-19 06:37:00,,0818.4,5.00,0.00,22.4,21.0,00.0,31.2,24.1,10.4,0000.0,0005.86,0002.99,0002.63
2023-01-19 06:38:00,,0818.5,5.01,0.00,22.4,20.9,00.0,31.2,24.0,10.5,0000.0,0005.37,0002.64,0002.30
2023-01-19 06:39:00,,0818.5,4.99,0.00,22.4,20.7,00.0,31.2,24.0,10.5,0000.0,0005.28,0002.52,0002.16
2023-01-19 06:40:00,,0818.5,4.99,0.00,22.3,20.6,00.0,31.2,24.0,10.4,0000.0,0005.85,0002.55,0002.19
2023-01-19 06:41:00,,0818.5,5.01,0.00,22.3,20.5,00.0,31.2,23.9,10.3,0000.0,0006.73,0002.55,0002.19
2023-01-19 06:42:00,,0818.5,4.98,0.00,22.3,20.5,00.0,31.1,23.9,10.2,0000.0,0005.59,0002.50,0002.16
2023-01-19 06:43:00,,0818.5,5.01,0.00,22.2,20.5,00.0,31.1,23.9,10.1,0000.0,0005.39,0002.44,0002.11
2023-01-19 06:44:00,,0818.5,5.01,0.00,22.2,20.5,00.0,31.1,23.8,10.1,0000.0,0005.32,0002.38,0002.05
2023-01-19 06:45:00,,0818.5,5.00,0.00,22.2,20.6,00.0,31.1,23.8,10.0,0000.0,0004.99,0002.27,0001.98
2023-01-19 06:46:00,,0818.5,5.02,0.00,22.2,21.4,00.0,31.1,24.0,09.9,0000.0,0004.56,0002.24,0001.93
2023-01-19 06:47:00,,0818.5,5.01,0.00,22.3,22.4,00.0,31.1,24.3,09.8,0000.0,0004.48,0002.20,0001.91
2023-01-19 06:48:00,,0818.5,4.99,0.00,22.5,22.9,00.0,31.1,24.5,10.1,0000.0,0004.58,0002.28,0001.98
2023-01-19 06:49:00,,0818.6,4.99,0.00,22.5,22.5,00.0,31.1,24.4,10.0,0000.0,0004.56,0002.29,0002.01
2023-01-19 06:50:00,,0818.5,5.00,0.00,22.5,22.0,00.0,31.2,24.4,09.8,0000.0,0004.51,0002.28,0002.01
2023-01-19 06:51:00,,0818.5,4.99,0.00,22.5,21.7,00.0,31.2,24.3,09.7,0000.0,0004.36,0002.31,0002.03
2023-01-19 06:52:00,,0818.5,5.01,0.00,22.5,21.4,00.0,31.2,24.2,10.2,0000.0,0003.37,0002.48,0002.17
2023-01-19 06:53:00,,0818.6,5.01,0.00,22.4,21.1,00.0,31.2,24.1,10.8,0000.0,0003.75,0002.84,0002.48
2023-01-19 06:54:00,,0818.5,5.00,0.00,22.4,20.9,00.0,31.2,24.0,10.6,0000.0,0004.14,0003.07,0002.69
2023-01-19 06:55:00,,0818.5,5.00,0.00,22.3,20.7,00.0,31.2,24.0,10.2,0000.0,0004.35,0003.18,0002.85
2023-01-19 06:56:00,,0818.5,5.00,0.00,22.3,20.6,00.0,31.2,23.9,09.8,0000.0,0004.46,0003.22,0002.91
2023-01-19 06:57:00,,0818.5,5.00,0.00,22.3,20.6,00.0,31.2,23.9,09.7,0000.0,0004.59,0003.28,0003.00
2023-01-19 06:58:00,,0818.5,4.99,0.00,22.3,20.6,00.0,31.1,23.9,10.3,0000.0,0004.84,0003.39,0003.15
2023-01-19 06:59:00,,0818.5,5.00,0.00,22.2,20.6,00.0,31.1,23.9,10.7,0000.0,0005.11,0003.52,0003.26
